Location: Unspecified
(0.0000°N, 0.0000°E)
Time: 18:52:28
(UTC+00:00)

Courier 1B - Pass Details

Date: 24 November 2019
Orbit: 963 x 1209 km, 28.3° (Epoch: 06 December)

Event Time Altitude Azimuth Distance (km) Brightness Sun altitude
Rises 15:03:33 0° 246° (WSW) 3,690 11.5 37.7°
Maximum altitude 15:10:20 10° 198° (SSW) 2,815 10.6 36.2°
Drops below altitude 10° 15:10:26 10° 197° (SSW) 2,817 10.6 36.1°
Sets 15:17:24 0° 151° (SSE) 3,864 10.6 34.6°
